When you browse on this site, cookies collect data to enhance your experience and personalize the content and advertising you see.
Visit our Privacy Policy to learn more. By continuing to use the site, you agree to this use of cookies and data.
  • In Hungary
  • List of Countries
  • For 7 days
  • Water Temperature
  • Satellite Maps
  • Weather Map
  • News
  • Weather Widgets
  • user-avatar
    Login

    Hourly Weather Polanica Zdroj

    Today, 16 December, Sunday

    Time Temperature Precipitation Wind Pressure Humidity
    00:00 -5°C° 0 mm 2 mps 725 mmHg 89%
    01:00 -4°C° 0 mm 1 mps 724 mmHg 92%
    02:00 -4°C° 0 mm 1 mps 724 mmHg 92%
    03:00 -4°C° 0 mm 1 mps 723 mmHg 92%
    04:00 -4°C° 0 mm 1 mps 723 mmHg 92%
    05:00 -6°C° 0 mm 1 mps 723 mmHg 92%
    06:00 -6°C° 0 mm 1 mps 723 mmHg 92%
    07:00 -6°C° 0 mm 0 mps 722 mmHg 93%
    08:00 -4°C° 0 mm 1 mps 722 mmHg 90%
    09:00 -4°C° 0 mm 1 mps 722 mmHg 87%
    10:00 -3°C° 0 mm 1 mps 722 mmHg 84%
    11:00 -3°C° 0 mm 1 mps 722 mmHg 80%
    12:00 -4°C° 0 mm 2 mps 722 mmHg 77%
    13:00 -3°C° 0 mm 2 mps 721 mmHg 74%
    14:00 -4°C° 0 mm 2 mps 721 mmHg 77%
    15:00 -5°C° 0 mm 2 mps 721 mmHg 81%
    16:00 -6°C° 0 mm 2 mps 721 mmHg 85%
    17:00 -6°C° 0 mm 2 mps 721 mmHg 85%
    18:00 -6°C° 0 mm 2 mps 721 mmHg 85%
    19:00 -7°C° 0 mm 3 mps 721 mmHg 85%
    20:00 -7°C° 0 mm 3 mps 721 mmHg 85%
    21:00 -7°C° 0 mm 3 mps 721 mmHg 84%
    22:00 -7°C° 0 mm 3 mps 721 mmHg 84%
    23:00 -7°C° 0 mm 3 mps 722 mmHg 85%

    Tomorrow, 17 December, Monday

    Time Temperature Precipitation Wind Pressure Humidity
    00:00 -5°C° 0 mm 2 mps 722 mmHg 86%
    01:00 -5°C° 0 mm 2 mps 722 mmHg 87%
    02:00 -5°C° 0 mm 2 mps 722 mmHg 88%
    03:00 -6°C° 0 mm 2 mps 722 mmHg 89%
    04:00 -6°C° 0 mm 2 mps 722 mmHg 90%
    05:00 -6°C° 0 mm 2 mps 722 mmHg 90%
    06:00 -6°C° 0 mm 2 mps 723 mmHg 90%
    07:00 -3°C° 0 mm 1 mps 723 mmHg 90%
    08:00 -3°C° 0 mm 1 mps 723 mmHg 88%
    09:00 -2°C° 0 mm 1 mps 724 mmHg 87%
    10:00 -1°C° 0 mm 1 mps 724 mmHg 85%
    11:00 0°C° 0 mm 1 mps 725 mmHg 84%
    12:00 0°C° 0 mm 1 mps 725 mmHg 83%
    13:00 +1°C° 0 mm 1 mps 725 mmHg 82%
    14:00 0°C° 0 mm 1 mps 725 mmHg 84%
    15:00 -1°C° 0 mm 1 mps 726 mmHg 87%
    16:00 -1°C° 0 mm 1 mps 726 mmHg 90%
    17:00 -2°C° 0 mm 1 mps 726 mmHg 90%
    18:00 -2°C° 0 mm 1 mps 727 mmHg 91%
    19:00 -2°C° 0 mm 1 mps 727 mmHg 91%
    20:00 -2°C° 0 mm 1 mps 728 mmHg 92%
    21:00 -2°C° 0 mm 1 mps 728 mmHg 92%
    22:00 -2°C° 0 mm 1 mps 728 mmHg 92%
    23:00 -2°C° 0 mm 1 mps 728 mmHg 92%

    Day after tomorrow, 18 December, Tuesday

    Time Temperature Precipitation Wind Pressure Humidity
    00:00 -2°C° 0 mm 1 mps 728 mmHg 92%
    01:00 -1°C° 0 mm 1 mps 729 mmHg 93%
    02:00 -1°C° 0 mm 1 mps 729 mmHg 93%
    03:00 -1°C° 0 mm 1 mps 729 mmHg 93%
    04:00 -1°C° 0 mm 1 mps 729 mmHg 92%
    05:00 -1°C° 0 mm 1 mps 729 mmHg 92%
    06:00 -1°C° 0 mm 1 mps 729 mmHg 92%
    07:00 -1°C° 0 mm 1 mps 729 mmHg 92%
    08:00 0°C° 0 mm 1 mps 729 mmHg 91%
    09:00 0°C° 0 mm 1 mps 729 mmHg 90%
    10:00 +1°C° 0 mm 1 mps 730 mmHg 89%
    11:00 +1°C° 0 mm 1 mps 729 mmHg 88%
    12:00 +2°C° 0 mm 1 mps 729 mmHg 88%
    13:00 +2°C° 0 mm 1 mps 729 mmHg 87%
    14:00 +2°C° 0 mm 1 mps 729 mmHg 88%
    15:00 +1°C° 0 mm 1 mps 728 mmHg 90%
    16:00 0°C° 0 mm 1 mps 728 mmHg 91%
    17:00 0°C° 0 mm 1 mps 728 mmHg 91%
    18:00 -1°C° 0 mm 1 mps 728 mmHg 91%
    19:00 -1°C° 0 mm 1 mps 728 mmHg 92%
    20:00 -1°C° 0 mm 1 mps 728 mmHg 92%
    21:00 -1°C° 0 mm 1 mps 727 mmHg 92%
    22:00 -1°C° 0 mm 1 mps 727 mmHg 92%
    23:00 -1°C° 0 mm 1 mps 727 mmHg 92%

    19 December, Wednesday

    Time Temperature Precipitation Wind Pressure Humidity
    00:00 -4°C° 0 mm 2 mps 727 mmHg 92%
    01:00 -4°C° 0 mm 2 mps 726 mmHg 92%
    02:00 -4°C° 0 mm 2 mps 726 mmHg 91%
    03:00 -4°C° 0 mm 2 mps 726 mmHg 91%
    04:00 -4°C° 0 mm 2 mps 725 mmHg 91%
    05:00 -4°C° 0 mm 2 mps 725 mmHg 91%
    06:00 -4°C° 0 mm 2 mps 725 mmHg 91%
    07:00 -5°C° 0 mm 3 mps 725 mmHg 90%
    08:00 -4°C° 0 mm 3 mps 725 mmHg 88%
    09:00 -2°C° 0 mm 3 mps 725 mmHg 86%
    10:00 -3°C° 0 mm 4 mps 725 mmHg 83%
    11:00 -3°C° 0 mm 4 mps 725 mmHg 82%
    12:00 -2°C° 0 mm 4 mps 725 mmHg 81%
    13:00 -2°C° 0 mm 4 mps 725 mmHg 80%
    14:00 -3°C° 0 mm 4 mps 724 mmHg 82%
    15:00 -2°C° 0 mm 3 mps 724 mmHg 84%
    16:00 -4°C° 0 mm 3 mps 724 mmHg 86%
    17:00 -4°C° 0 mm 3 mps 724 mmHg 85%
    18:00 -5°C° 0 mm 3 mps 724 mmHg 85%
    19:00 -5°C° 0 mm 3 mps 723 mmHg 85%
    20:00 -5°C° 0 mm 3 mps 723 mmHg 84%
    21:00 -5°C° 0 mm 3 mps 723 mmHg 83%
    22:00 -5°C° 0 mm 3 mps 723 mmHg 82%
    23:00 -5°C° 0 mm 3 mps 723 mmHg 82%

    20 December, Thursday

    Time Temperature Precipitation Wind Pressure Humidity
    00:00 -5°C° 0 mm 3 mps 723 mmHg 82%
    01:00 -5°C° 0 mm 3 mps 723 mmHg 83%
    02:00 -5°C° 0 mm 3 mps 723 mmHg 83%
    03:00 -5°C° 0 mm 3 mps 723 mmHg 83%
    04:00 -5°C° 0 mm 3 mps 722 mmHg 84%
    05:00 -6°C° 0 mm 3 mps 722 mmHg 84%
    06:00 -6°C° 0 mm 3 mps 722 mmHg 85%
    07:00 -6°C° 0 mm 3 mps 722 mmHg 86%
    08:00 -5°C° 0 mm 3 mps 723 mmHg 84%
    09:00 -5°C° 0 mm 3 mps 723 mmHg 82%
    10:00 -5°C° 0 mm 3 mps 723 mmHg 81%
    11:00 -4°C° 0 mm 3 mps 723 mmHg 80%
    12:00 -4°C° 0 mm 3 mps 723 mmHg 79%
    13:00 -2°C° 0 mm 3 mps 723 mmHg 78%
    14:00 -2°C° 0 mm 3 mps 723 mmHg 80%
    15:00 -4°C° 0 mm 3 mps 723 mmHg 82%
    16:00 -3°C° 0 mm 2 mps 723 mmHg 85%
    17:00 -3°C° 0.1 mm 2 mps 723 mmHg 86%
    18:00 -3°C° 0.1 mm 2 mps 723 mmHg 88%
    19:00 -3°C° 0.1 mm 2 mps 723 mmHg 89%
    20:00 -3°C° 0.2 mm 2 mps 723 mmHg 90%
    21:00 -3°C° 0.2 mm 2 mps 723 mmHg 91%
    22:00 -3°C° 0.2 mm 2 mps 723 mmHg 92%
    23:00 -1°C° 0.5 mm 1 mps 723 mmHg 93%

    21 December, Friday

    Time Temperature Precipitation Wind Pressure Humidity
    00:00 -1°C° 0.5 mm 1 mps 723 mmHg 93%
    01:00 -1°C° 0.5 mm 1 mps 723 mmHg 94%
    02:00 -1°C° 0.5 mm 1 mps 723 mmHg 94%
    03:00 -3°C° 0.5 mm 2 mps 723 mmHg 94%
    04:00 -2°C° 0.5 mm 2 mps 722 mmHg 94%
    05:00 -2°C° 0.2 mm 2 mps 722 mmHg 94%
    06:00 -2°C° 0.2 mm 2 mps 722 mmHg 94%
    07:00 -2°C° 0.2 mm 2 mps 723 mmHg 94%
    08:00 -2°C° 0 mm 2 mps 723 mmHg 93%
    09:00 -2°C° 0 mm 2 mps 723 mmHg 92%
    10:00 -1°C° 0 mm 2 mps 723 mmHg 92%
    11:00 -1°C° 0 mm 2 mps 723 mmHg 92%
    12:00 -1°C° 0 mm 2 mps 723 mmHg 92%
    13:00 +1°C° 0 mm 2 mps 722 mmHg 92%
    14:00 -1°C° 0 mm 2 mps 722 mmHg 92%
    15:00 -1°C° 0 mm 2 mps 722 mmHg 92%
    16:00 -2°C° 0 mm 2 mps 722 mmHg 91%
    17:00 -2°C° 0 mm 2 mps 721 mmHg 91%
    18:00 -2°C° 0 mm 2 mps 721 mmHg 91%
    19:00 -2°C° 0 mm 3 mps 721 mmHg 91%
    20:00 -2°C° 0.1 mm 3 mps 720 mmHg 91%
    21:00 -1°C° 0.1 mm 3 mps 720 mmHg 91%
    22:00 -1°C° 0.1 mm 3 mps 720 mmHg 90%
    23:00 -2°C° 0.4 mm 4 mps 719 mmHg 90%
    Show more